Date String (YYYY-MM-DD hh:mm:ss) UTC,Instrument flags,Ambient pressure (hPa),Sample flow (lpm),Bypass flow (lpm),Sample temperature (°C),Ambient temperature (°C),ASC tube jacket temperature (°C),LED temperature (°C),Box temperature (°C),Sample RH (%),Span deviation,Mass concentration (μg/m³),Mass concentration (μg/m³),Mass concentration (μg/m³)
DateTimeUTC,F1_M11,P_M11,Q1_M11,Q2_M11,T1_M11,T2_M11,T3_M11,T4_M11,T5_M11,U1_M11,ZSPAN_M11,X0_M11,X2_M11,X1_M11
2022-05-29 19:00:00,,0810.3,5.01,0.00,29.3,28.3,00.0,38.2,31.2,18.9,0000.0,0011.13,0004.28,0002.38
2022-05-29 19:01:00,,0810.2,5.01,0.00,29.4,28.3,00.0,38.2,31.2,19.2,0000.0,0011.26,0004.33,0002.40
2022-05-29 19:02:00,,0810.3,5.00,0.00,29.4,28.3,00.0,38.3,31.2,19.1,0000.0,0011.33,0004.35,0002.45
2022-05-29 19:03:00,,0810.4,5.00,0.00,29.4,28.4,00.0,38.3,31.3,18.6,0000.0,0011.58,0004.33,0002.47
2022-05-29 19:04:00,,0810.4,5.00,0.00,29.4,28.4,00.0,38.3,31.3,18.8,0000.0,0011.93,0004.34,0002.48
2022-05-29 19:05:00,,0810.3,5.00,0.00,29.4,28.4,00.0,38.3,31.3,19.5,0000.0,0011.71,0004.33,0002.51
2022-05-29 19:06:00,,0810.3,4.99,0.00,29.5,28.5,00.0,38.3,31.3,20.3,0000.0,0011.98,0004.42,0002.56
2022-05-29 19:07:00,,0810.3,5.00,0.00,29.5,28.5,00.0,38.3,31.4,19.4,0000.0,0011.84,0004.43,0002.60
2022-05-29 19:08:00,,0810.2,5.01,0.00,29.5,28.5,00.0,38.3,31.4,19.5,0000.0,0011.68,0004.43,0002.61
2022-05-29 19:09:00,,0810.2,5.00,0.00,29.5,28.5,00.0,38.3,31.4,19.9,0000.0,0011.67,0004.47,0002.64
2022-05-29 19:10:00,,0810.2,4.99,0.00,29.5,28.5,00.0,38.4,31.4,19.6,0000.0,0011.66,0004.49,0002.67
2022-05-29 19:11:00,,0810.2,5.00,0.00,29.5,28.6,00.0,38.4,31.4,20.2,0000.0,0011.81,0004.53,0002.69
2022-05-29 19:12:00,,0810.2,5.00,0.00,29.5,28.6,00.0,38.4,31.4,20.7,0000.0,0012.07,0004.59,0002.72
2022-05-29 19:13:00,,0810.2,4.99,0.00,29.6,28.6,00.0,38.4,31.4,21.1,0000.0,0012.12,0004.66,0002.76
2022-05-29 19:14:00,,0810.2,5.00,0.00,29.6,28.6,00.0,38.4,31.4,21.0,0000.0,0012.19,0004.77,0002.81
2022-05-29 19:15:00,,0810.2,5.01,0.00,29.6,28.6,00.0,38.4,31.4,20.5,0000.0,0011.85,0004.88,0002.88
2022-05-29 19:16:00,,0810.2,4.99,0.00,29.6,28.6,00.0,38.4,31.4,20.4,0000.0,0011.90,0004.97,0002.92
2022-05-29 19:17:00,,0810.2,5.01,0.00,29.6,28.6,00.0,38.4,31.4,20.6,0000.0,0012.09,0005.01,0002.97
2022-05-29 19:18:00,,0810.1,5.00,0.00,29.6,28.6,00.0,38.5,31.5,21.0,0000.0,0012.59,0005.07,0003.01
2022-05-29 19:19:00,,0810.1,4.99,0.00,29.6,28.6,00.0,38.5,31.5,20.9,0000.0,0013.46,0005.13,0003.04
2022-05-29 19:20:00,,0810.0,5.00,0.00,29.6,28.6,00.0,38.5,31.5,20.9,0000.0,0013.47,0005.13,0003.04
2022-05-29 19:21:00,,0810.1,5.00,0.00,29.6,28.6,00.0,38.5,31.5,20.9,0000.0,0013.28,0005.14,0003.04
2022-05-29 19:22:00,,0810.0,4.99,0.00,29.6,28.6,00.0,38.5,31.5,20.9,0000.0,0012.68,0005.12,0003.03
2022-05-29 19:23:00,,0809.9,5.01,0.00,29.7,28.6,00.0,38.5,31.5,21.0,0000.0,0012.40,0005.08,0003.04
2022-05-29 19:24:00,,0810.0,5.01,0.00,29.7,28.6,00.0,38.5,31.5,21.1,0000.0,0012.22,0005.04,0003.03
2022-05-29 19:25:00,,0810.0,5.00,0.00,29.7,28.6,00.0,38.5,31.5,21.2,0000.0,0012.09,0005.04,0003.00
2022-05-29 19:26:00,,0809.9,5.00,0.00,29.7,28.6,00.0,38.5,31.5,20.7,0000.0,0012.29,0005.00,0002.98
2022-05-29 19:27:00,,0810.0,5.00,0.00,29.7,28.6,00.0,38.5,31.5,21.1,0000.0,0013.03,0004.93,0002.93
2022-05-29 19:28:00,,0810.0,5.01,0.00,29.7,28.6,00.0,38.6,31.5,21.4,0000.0,0013.40,0004.86,0002.86
2022-05-29 19:29:00,,0810.0,5.00,0.00,29.7,28.6,00.0,38.6,31.5,21.4,0000.0,0012.89,0004.80,0002.83
2022-05-29 19:30:00,,0809.9,4.99,0.00,29.7,28.6,00.0,38.6,31.5,21.5,0000.0,0012.12,0004.78,0002.80
2022-05-29 19:31:00,,0809.9,5.01,0.00,29.7,28.6,00.0,38.6,31.6,21.6,0000.0,0011.81,0004.72,0002.78
2022-05-29 19:32:00,,0809.9,5.00,0.00,29.7,28.7,00.0,38.6,31.6,21.0,0000.0,0011.86,0004.69,0002.74
2022-05-29 19:33:00,,0809.8,4.98,0.00,29.7,28.7,00.0,38.6,31.6,21.5,0000.0,0012.01,0004.68,0002.73
2022-05-29 19:34:00,,0809.7,5.01,0.00,29.7,28.7,00.0,38.6,31.6,21.1,0000.0,0012.02,0004.67,0002.71
2022-05-29 19:35:00,,0809.7,4.99,0.00,29.8,28.7,00.0,38.6,31.6,20.7,0000.0,0012.17,0004.71,0002.70
2022-05-29 19:36:00,,0809.7,4.99,0.00,29.8,28.7,00.0,38.6,31.6,21.0,0000.0,0012.17,0004.65,0002.67
2022-05-29 19:37:00,,0809.7,5.00,0.00,29.8,28.7,00.0,38.6,31.6,21.0,0000.0,0012.13,0004.60,0002.64
2022-05-29 19:38:00,,0809.7,5.00,0.00,29.8,28.3,00.0,38.6,31.5,21.3,0000.0,0011.29,0004.60,0002.64
2022-05-29 19:39:00,,0809.7,5.01,0.00,29.7,27.5,00.0,38.5,31.3,21.4,0000.0,0011.00,0004.69,0002.65
2022-05-29 19:40:00,,0809.7,5.00,0.00,29.6,27.2,00.0,38.5,31.2,21.9,0000.0,0011.20,0004.69,0002.62
2022-05-29 19:41:00,,0809.7,5.00,0.00,29.5,27.2,00.0,38.5,31.1,22.8,0000.0,0011.33,0004.70,0002.59
2022-05-29 19:42:00,,0809.7,4.99,0.00,29.5,27.3,00.0,38.5,31.1,22.1,0000.0,0011.43,0004.76,0002.58
2022-05-29 19:43:00,,0809.8,5.01,0.00,29.4,27.4,00.0,38.4,31.1,22.3,0000.0,0011.13,0004.71,0002.59
2022-05-29 19:44:00,,0809.9,5.00,0.00,29.4,27.5,00.0,38.4,31.1,22.5,0000.0,0010.96,0004.67,0002.56
2022-05-29 19:45:00,,0809.9,5.00,0.00,29.4,27.7,00.0,38.4,31.2,23.2,0000.0,0011.52,0004.62,0002.53
2022-05-29 19:46:00,,0809.9,4.99,0.00,29.4,27.8,00.0,38.4,31.2,23.3,0000.0,0011.63,0004.59,0002.52
2022-05-29 19:47:00,,0810.0,5.02,0.00,29.4,27.9,00.0,38.4,31.2,23.3,0000.0,0012.02,0004.59,0002.51
2022-05-29 19:48:00,,0810.0,5.00,0.00,29.4,28.0,00.0,38.4,31.2,23.6,0000.0,0011.59,0004.54,0002.53
2022-05-29 19:49:00,,0810.0,4.99,0.00,29.4,28.1,00.0,38.4,31.2,21.0,0000.0,0011.80,0004.58,0002.52
2022-05-29 19:50:00,,0809.9,4.99,0.00,29.4,28.1,00.0,38.4,31.3,20.7,0000.0,0012.64,0004.54,0002.50
2022-05-29 19:51:00,,0809.9,5.01,0.00,29.4,28.2,00.0,38.4,31.3,20.9,0000.0,0012.57,0004.50,0002.48
2022-05-29 19:52:00,,0809.9,5.00,0.00,29.4,28.3,00.0,38.4,31.3,19.9,0000.0,0012.27,0004.42,0002.45
2022-05-29 19:53:00,,0809.8,4.99,0.00,29.5,28.3,00.0,38.4,31.3,19.0,0000.0,0012.25,0004.32,0002.42
2022-05-29 19:54:00,,0809.7,5.00,0.00,29.5,28.4,00.0,38.4,31.3,20.0,0000.0,0012.39,0004.28,0002.37
2022-05-29 19:55:00,,0809.7,5.00,0.00,29.5,28.4,00.0,38.4,31.4,19.1,0000.0,0012.35,0004.29,0002.34
2022-05-29 19:56:00,,0809.7,4.98,0.00,29.5,28.5,00.0,38.4,31.4,19.0,0000.0,0011.65,0004.26,0002.30
2022-05-29 19:57:00,,0809.7,5.01,0.00,29.5,28.5,00.0,38.4,31.4,19.6,0000.0,0011.21,0004.20,0002.26
2022-05-29 19:58:00,,0809.7,5.00,0.00,29.6,28.6,00.0,38.4,31.4,18.6,0000.0,0010.84,0004.13,0002.20
2022-05-29 19:59:00,,0809.7,4.99,0.00,29.6,28.6,00.0,38.4,31.4,18.2,0000.0,0011.31,0004.07,0002.14
